Weather in Qom

Iran     34°38′29″N   50°52′28″E
temp.,
°C
wind,
m/s
gust,
m/s
humid.,
%
clouds,
%
prec.,
mm/h
press.,
hPa
HPBL,
m
13 may, thu
thu1301:30+21wsw235495 0.0 1013135
04:30+20nw125617 0.0 101262
07:30+21wnw11500 0.0 1013127
10:30+24nw21391 0.0 1013696
13:30+27ene11280 0.0 10111309
16:30+30ese43240 0.0 10081983
19:30+22sw91144100 2.6 1013692
22:30+23wnw564078 2.9 1012414
14 may, fri
fri1401:30+21ese7753100 0.4 1014776
04:30+20wnw4455100 0.4 1012359
07:30+21nw1255100 0.0 1014274
10:30+23nnw114388 0.0 10131074
13:30+26ese343240 0.0 10111820
16:30+28e76310 0.0 10082024
19:30+24nne874298 0.8 1011786
22:30+20w5649100 2.4 1013328
15 may, sat
sat1501:30+21nnw4549100 0.0 1012419
04:30+20nne2351100 0.0 1012431
07:30+20n125376 0.0 1014382
10:30+22ne334438 0.0 1013978
13:30+25e563119 0.0 10121849
16:30+27e45260 0.0 10092255
19:30+27ne552312 0.0 10092546
22:30+25ne3427100 0.0 1010166
16 may, sun
sun1601:30+23sw113456 0.0 101074
04:30+21wnw34485 0.0 101190
07:30+21wnw22455 0.0 1012155
10:30+24ne23315 0.0 10121071
13:30+28e56164 0.0 10102082
16:30+29e43150 0.0 10082499
19:30+29ene44160 0.0 1008935
22:30+27e24195 0.0 1009179
17 may, mon
mon1701:30+25ese22240 0.0 100957
04:30+23e11278 0.0 100932
07:30+24e11250 0.0 101052
10:30+27e33180 0.0 1010854
13:30+30e33170 0.0 10091333
16:30+31ne221725 0.5 10071576
19:30+24wsw111441100 0.3 1009257
22:30+25wnw45348 0.3 1009194